EW2795 Weather Reports


Display with metric or nautical units.
time (UTC)temp
F
wind
direction
speed
MPH
gust
MPH
rain 1hr
in
rain 24hr
in
rain mn
in
humidity
%
barometer
mb
20260504044605 50 178 3.0 0.0 0.00 0.00 0.00 69 1010.4
20260504044502 50 177 3.0 0.0 0.00 0.00 0.00 69 1010.4
20260504043052 50 198 2.0 0.0 0.00 0.00 0.00 70 1010.6
20260504041535 50 209 2.0 0.0 0.00 0.00 0.00 70 1010.7
20260504040020 49 153 2.0 0.0 0.00 0.00 0.00 70 1010.7
20260504034512 49 172 2.0 0.0 0.00 0.00 0.00 71 1010.9
20260504033051 48 155 2.0 0.0 0.00 0.00 0.00 74 1011.0
20260504031549 48 151 1.0 0.0 0.00 0.00 0.00 74 1011.3
20260504030020 48 150 1.0 0.0 0.00 0.00 0.00 74 1011.4
20260504024509 48 167 0.0 0.0 0.00 0.00 0.00 73 1011.6
20260504023056 49 167 1.0 0.0 0.00 0.00 0.00 72 1011.7
20260504021552 49 155 1.0 0.0 0.00 0.00 0.00 71 1011.8
20260504020038 50 172 1.0 0.0 0.00 0.00 0.00 69 1011.8
20260504014538 50 178 0.0 0.0 0.00 0.00 0.00 70 1011.8
20260504013040 50 180 1.0 0.0 0.00 0.00 0.00 69 1011.5
20260504011512 50 178 1.0 0.0 0.00 0.00 0.00 68 1011.5
20260504010006 50 191 2.0 0.0 0.00 0.00 0.00 68 1011.5
20260504004548 51 194 3.0 0.0 0.00 0.00 0.00 68 1012.0
20260504003044 51 190 7.0 0.0 0.00 0.00 0.00 66 1012.1
20260504001536 51 209 6.0 0.0 0.00 0.00 0.00 65 1012.4
20260504000026 51 204 7.0 0.0 0.00 0.00 0.00 64 1012.6
20260503234520 52 214 6.0 0.0 0.00 0.00 0.00 62 1012.8
20260503233008 54 257 9.0 0.0 0.00 0.00 0.00 55 1012.5
20260503231558 57 205 9.0 0.0 0.00 0.00 0.00 47 1012.0
20260503230050 57 237 7.0 0.0 0.00 0.00 0.00 46 1011.8
20260503224544 57 210 8.0 0.0 0.00 0.00 0.00 46 1012.0
20260503223041 58 219 8.0 0.0 0.00 0.00 0.00 44 1012.2
20260503221538 58 225 5.0 0.0 0.00 0.00 0.00 44 1012.3
20260503220026 58 217 7.0 0.0 0.00 0.00 0.00 45 1012.4
20260503214509 58 221 7.0 0.0 0.00 0.00 0.00 45 1012.4
20260503213054 59 240 8.0 0.0 0.00 0.00 0.00 45 1012.5
20260503211552 59 232 7.0 0.0 0.00 0.00 0.00 44 1012.6
20260503210035 59 206 9.0 0.0 0.00 0.00 0.00 43 1012.8
20260503204528 59 252 8.0 0.0 0.00 0.00 0.00 44 1012.8
20260503203017 59 213 9.0 0.0 0.00 0.00 0.00 44 1012.9
20260503201511 60 194 8.0 0.0 0.00 0.00 0.00 41 1013.0
20260503200056 60 277 8.0 0.0 0.00 0.00 0.00 45 1013.0
20260503200002 60 213 8.0 0.0 0.00 0.00 0.00 44 1013.0
20260503194550 60 256 6.0 0.0 0.00 0.00 0.00 45 1013.2
20260503193049 60 246 9.0 0.0 0.00 0.00 0.00 41 1013.5
20260503191529 59 234 10.0 0.0 0.00 0.00 0.00 44 1013.7
20260503190041 60 211 11.0 0.0 0.00 0.00 0.00 43 1014.1
20260503184515 59 240 7.0 0.0 0.00 0.00 0.00 45 1014.4
20260503183013 58 205 9.0 0.0 0.00 0.00 0.00 42 1014.6
20260503181551 59 223 10.0 0.0 0.00 0.00 0.00 42 1014.6
20260503180052 59 240 8.0 0.0 0.00 0.00 0.00 45 1014.7
20260503174537 58 244 8.0 0.0 0.00 0.00 0.00 46 1014.9
20260503173046 58 232 7.0 0.0 0.00 0.00 0.00 46 1015.1
20260503171534 57 207 7.0 0.0 0.00 0.00 0.00 47 1015.4
20260503130109 41 213 4.0 0.0 0.00 0.00 0.00 86 1017.5
20260503081615 32 326 0.0 0.0 0.00 0.00 0.00 94 1016.6
20260503071524 33 326 0.0 0.0 0.00 0.00 0.00 94 1016.5
20260503054540 34 326 0.0 0.0 0.00 0.00 0.00 93 1016.8
20260503053022 34 326 0.0 0.0 0.00 0.00 0.00 92 1016.8
20260503051512 35 326 0.0 0.0 0.00 0.00 0.00 92 1016.6
20260503050011 35 326 0.0 0.0 0.00 0.00 0.00 92 1016.6